This demonstration page uses our WeatherBlox Daily Observations layout. Learn more.

Left ArrowRight Arrow

Hourly Observations for March 24, 2015

Temp ( °F °C ) Dew Point ( °F °C ) Humidity (%) Winds ( mph kmh ) Pressure ( in mb ) Visibility ( mi km ) Precip ( " mm )
12:53 am 00:53 Mostly Cloudy 33 0.6 31 -0.6 92 92 WSW 8 13 29.87 1012 9 14 N/A
1:11 am 01:11 Cloudy 33 0.6 32 undefined 96 96 WSW 8 13 29.91 1013 8 13 N/A
1:53 am 01:53 Cloudy 33 0.6 31 -0.6 92 92 NW 10 17 29.88 1012 9 14 N/A
2:53 am 02:53 Cloudy 32 undefined 30 -1.1 92 92 WNW 8 13 29.89 1012 9 14 N/A
3:53 am 03:53 Cloudy 31 -0.6 29 -1.7 92 92 WNW 13 20 29.89 1012 10 16 N/A
4:53 am 04:53 Cloudy 30 -1.1 28 -2.2 92 92 WNW 10 17 29.90 1012 10 16 N/A
5:53 am 05:53 Cloudy 29 -1.7 27 -2.8 92 92 WNW 13 20 29.92 1013 10 16 N/A
6:53 am 06:53 Cloudy 29 -1.7 27 -2.8 92 92 NW 9 15 29.94 1014 9 14 N/A
7:53 am 07:53 Cloudy 29 -1.7 27 -2.8 92 92 NW 12 19 29.96 1015 9 14 N/A
8:53 am 08:53 Cloudy 29 -1.7 26 -3.3 89 89 NW 10 17 29.98 1015 10 16 N/A
9:53 am 09:53 Cloudy 30 -1.1 26 -3.3 85 85 WNW 10 17 29.99 1016 10 16 N/A
10:53 am 10:53 Cloudy 30 -1.1 26 -3.3 85 85 WNW 7 11 30.00 1016 10 16 N/A
11:40 am 11:40 Cloudy 30 -1 27 -3 86 86 NW 8 13 30.06 1018 10 16 N/A
11:50 am 11:50 Cloudy 30 -1 27 -3 86 86 WNW 9 15 30.06 1018 10 16 N/A
11:53 am 11:53 Cloudy 31 -0.6 27 -2.8 85 85 WNW 10 17 30.00 1016 10 16 N/A
12:53 pm 12:53 Cloudy 32 undefined 27 -2.8 82 82 WNW 10 17 30.01 1016 10 16 N/A
1:42 pm 13:42 Cloudy 34 1 27 -3 75 75 WNW 7 11 30.03 1017 10 16 N/A
1:53 pm 13:53 Cloudy 33 0.6 27 -2.8 78 78 WNW 9 15 30.01 1016 10 16 N/A
2:53 pm 14:53 Cloudy 34 1.1 27 -2.8 76 76 WNW 6 9 30.02 1017 10 16 N/A
3:53 pm 15:53 Cloudy 36 2.2 28 -2.2 73 73 WNW 6 9 30.02 1017 10 16 N/A
4:53 pm 16:53 Cloudy 38 3.3 28 -2.2 68 68 WNW 12 19 30.03 1017 10 16 N/A
5:53 pm 17:53 Cloudy 37 2.8 28 -2.2 70 70 NW 13 20 30.05 1018 10 16 N/A
6:40 pm 18:40 Cloudy 36 2 27 -3 70 70 NW 14 22 30.09 1019 10 16 N/A
6:53 pm 18:53 Cloudy 34 1.1 27 -2.8 76 76 NW 15 24 30.09 1019 10 16 N/A
7:40 pm 19:40 Cloudy 34 1 27 -3 75 75 NNW 12 19 30.15 1021 10 16 N/A
7:48 pm 19:48 Cloudy 34 1 27 -3 75 75 NNW 13 20 30.15 1021 10 16 N/A
7:53 pm 19:53 Cloudy 33 0.6 27 -2.8 78 78 NNW 10 17 30.12 1020 10 16 N/A
8:14 pm 20:14 Cloudy 32 undefined 27 -3 80 80 NNW 12 19 30.15 1021 10 16 N/A
8:53 pm 20:53 Cloudy 32 undefined 26 -3.3 79 79 NW 8 13 30.15 1021 10 16 N/A
9:53 pm 21:53 Cloudy 32 undefined 26 -3.3 79 79 NW 8 13 30.17 1022 10 16 N/A
10:53 pm 22:53 Cloudy 32 undefined 26 -3.3 79 79 WNW 6 9 30.19 1023 10 16 N/A
11:53 pm 23:53 Cloudy 32 undefined 26 -3.3 79 79 NW 10 17 30.21 1023 10 16 N/A

Powered by AerisWeather